Location: Unspecified
(33.9239°N, 118.0544°W)
Time: 01:40:54
(UTC-07:00)

Resurs 1-4 Rocket - Visible Passes

Search period start: 01 October 2016 00:00
Search period end: 11 October 2016 00:00
Orbit: 800 x 814 km, 98.5° (Epoch: 30 September)

Date Brightness Start Highest point End Pass type
(mag) Time Alt. Az. Time Alt. Az. Time Alt. Az.
01 Oct 4.9 03:16:16 10° NNE 03:16:27 11° NNE 03:16:27 11° NNE visible
02 Oct 4.5 04:32:19 10° NNW 04:32:34 11° NNW 04:32:34 11° NNW visible
03 Oct 4.5 04:07:13 10° N 04:07:36 12° N 04:07:36 12° N visible
04 Oct 4.8 03:42:26 10° N 03:42:40 11° N 03:42:40 11° N visible
